Westhampton Beach, NY

9:12 AM EST on February 07, 2016 (GMT -0500)
The Gabreski

Weather History for KFOK - February, 2013

Change the Weather History Date:

Wednesday, February 6, 2013

  Actual Average Record
Temperature  
Mean Temperature 32 °F -  
Max Temperature 39 °F 38 °F 54 °F (2008)
Min Temperature 26 °F 20 °F 0 °F (2009)
Degree Days  
Heating Degree Days 32    
Moisture  
Dew Point 21 °F    
Average Humidity 67    
Maximum Humidity 96    
Minimum Humidity 30    
Precipitation  
Precipitation 0.00 in - - ()
Sea Level Pressure  
Sea Level Pressure 30.09 in    
Wind  
Wind Speed 6 mph (NW)    
Max Wind Speed 17 mph    
Max Gust Speed 30 mph    
Visibility 8 miles    
Events Snow    
Averages and records for this station are not official NWS values.
T = Trace of Precipitation, MM = Missing Value Source: NWS Daily Summary

Daily Weather History Graph

Daily Weather History Graph

Search for Another Location

Airport or City:

Trip Planner

Search our weather history database for the weather conditions in past years. The results will help you decide how hot, cold, wet, or windy it might be!

Date:

Astronomy

Feb. 06, 2013 Rise Set
Actual Time 6:55 AM EST 5:14 PM EST
Civil Twilight 6:26 AM EST 5:43 PM EST
Nautical Twilight 5:54 AM EST 6:15 PM EST
Astronomical Twilight 5:22 AM EST 6:47 PM EST
Moon 3:37 AM EST (2/6) 1:29 PM EST (2/6)
Length of Visible Light 11h 16m
Length of Day
10h 19m
Waning Crescent, 17% of the Moon is Illuminated
Feb 6
Waning Crescent
Feb 10
New
Feb 17
First Quarter
Feb 25
Full
Mar 4
Last Quarter

Hourly Weather History & Observations

Time (EST) Temp. Windchill Dew Point Humidity Pressure Visibility Wind Dir Wind Speed Gust Speed Precip Events Conditions
12:53 AM 30.0 °F 25.2 °F 26.1 °F 85% 29.93 in 4.0 mi North 4.6 mph - 0.00 in Snow Light Snow
1:53 AM 30.0 °F 22.4 °F 26.1 °F 85% 29.93 in 7.0 mi NNE 8.1 mph - 0.00 in   Overcast
2:53 AM 30.0 °F 26.5 °F 26.1 °F 85% 29.93 in 8.0 mi NE 3.5 mph - N/A   Overcast
3:14 AM 30.2 °F 26.7 °F 26.6 °F 86% 29.93 in 8.0 mi North 3.5 mph - N/A   Overcast
4:02 AM 30.2 °F - 26.6 °F 86% 29.94 in 8.0 mi Calm Calm - N/A   Overcast
4:53 AM 28.9 °F - 26.1 °F 89% 29.96 in 7.0 mi Calm Calm - N/A   Overcast
5:53 AM 26.1 °F - 24.1 °F 92% 29.98 in 4.0 mi Calm Calm - N/A   Overcast
6:02 AM 26.6 °F - 24.8 °F 93% 29.98 in 3.0 mi Calm Calm - N/A   Overcast
6:20 AM 26.6 °F - 24.8 °F 93% 30.00 in 3.0 mi Calm Calm - N/A   Overcast
6:53 AM 28.0 °F 24.2 °F 25.0 °F 88% 30.01 in 5.0 mi West 3.5 mph - N/A   Overcast
7:53 AM 28.0 °F - 27.0 °F 96% 30.04 in 4.0 mi Calm Calm - N/A   Overcast
8:13 AM 28.4 °F 24.6 °F 26.6 °F 93% 30.05 in 4.0 mi WSW 3.5 mph - N/A   Mostly Cloudy
8:24 AM 30.2 °F 25.4 °F 28.4 °F 93% 30.05 in 4.0 mi WSW 4.6 mph - N/A   Partly Cloudy
8:53 AM 32.0 °F 25.6 °F 28.0 °F 85% 30.06 in 6.0 mi West 6.9 mph - N/A   Partly Cloudy
9:53 AM 35.1 °F 26.9 °F 25.0 °F 67% 30.06 in 10.0 mi WNW 11.5 mph - N/A   Clear
10:53 AM 37.9 °F 30.5 °F 21.9 °F 53% 30.08 in 10.0 mi WNW 11.5 mph 19.6 mph N/A   Clear
11:53 AM 39.0 °F 32.3 °F 23.0 °F 53% 30.06 in 10.0 mi NW 10.4 mph 18.4 mph N/A   Clear
12:53 PM 39.9 °F 31.8 °F 19.9 °F 45% 30.07 in 10.0 mi NW 15.0 mph 24.2 mph N/A   Clear
1:53 PM 39.0 °F 30.6 °F 17.1 °F 41% 30.07 in 10.0 mi WNW 15.0 mph 23.0 mph N/A   Scattered Clouds
2:53 PM 39.9 °F 31.1 °F 17.1 °F 40% 30.09 in 10.0 mi NW 17.3 mph 28.8 mph N/A   Mostly Cloudy
3:53 PM 39.0 °F 30.3 °F 16.0 °F 39% 30.12 in 10.0 mi WNW 16.1 mph 29.9 mph N/A   Partly Cloudy
4:53 PM 37.0 °F 29.3 °F 17.1 °F 44% 30.15 in 10.0 mi WNW 11.5 mph 20.7 mph N/A   Clear
5:53 PM 34.0 °F 26.6 °F 17.1 °F 50% 30.18 in 10.0 mi WNW 9.2 mph - N/A   Clear
6:53 PM 33.1 °F 25.5 °F 16.0 °F 50% 30.22 in 10.0 mi WNW 9.2 mph - N/A   Clear
7:53 PM 33.1 °F 25.5 °F 15.1 °F 48% 30.26 in 10.0 mi WNW 9.2 mph - N/A   Clear
8:53 PM 32.0 °F 24.8 °F 14.0 °F 48% 30.29 in 10.0 mi WNW 8.1 mph - N/A   Clear
9:53 PM 30.9 °F 25.2 °F 12.9 °F 47% 30.32 in 10.0 mi North 5.8 mph - N/A   Clear
10:53 PM 30.9 °F 21.7 °F 6.1 °F 35% 30.35 in 10.0 mi NNW 11.5 mph - N/A   Clear
11:53 PM 30.0 °F 23.2 °F 1.9 °F 30% 30.36 in 10.0 mi North 6.9 mph - N/A   Clear